Weather History for Twin Falls, ID

Change the Weather History Date:

Thursday, November 22, 2012

  Actual Average Record
Temperature  
Mean Temperature 37 °F -  
Max Temperature 46 °F 45 °F 57 °F (2002)
Min Temperature 28 °F 24 °F 2 °F (1985)
Degree Days  
Heating Degree Days 28 30  
Month to date heating degree days 432 562  
Since 1 July heating degree days 864 1181  
Cooling Degree Days 0 0  
Month to date cooling degree days 0 0  
Year to date cooling degree days 970 680  
Moisture  
Dew Point 23 °F    
Average Humidity 60    
Maximum Humidity 78    
Minimum Humidity 41    
Precipitation  
Precipitation 0.00 in 0.04 in 0.69 in (2014)
Month to date precipitation 0.47 0.80  
Year to date precipitation 7.85 9.05  
Sea Level Pressure  
Sea Level Pressure 30.40 in    
Wind  
Wind Speed 7 mph (South)    
Max Wind Speed 14 mph    
Max Gust Speed 17 mph    
Visibility 10 miles    
Events      
T = Trace of Precipitation, MM = Missing Value Source: NWS Daily Summary

Daily Weather History Graph

Daily Weather History Graph

Search for Another Location

Airport:

Trip Planner

Search our weather history database for the weather conditions in past years. The results will help you decide how hot, cold, wet, or windy it might be!

Date:

Astronomy

Nov. 22, 2012 Rise Set
Actual Time 7:38 AM MST 5:09 PM MST
Civil Twilight 7:07 AM MST 5:40 PM MST
Nautical Twilight 6:32 AM MST 6:15 PM MST
Astronomical Twilight 5:59 AM MST 6:48 PM MST
Moon 2:03 PM MST (11/22) 1:56 AM MST (11/22)
Length of Visible Light 10h 33m
Length of Day
9h 31m
Waxing Gibbous, 72% of the Moon is Illuminated
Nov 22
Waxing Gibbous
Nov 28
Full
Dec 6
Last Quarter
Dec 13
New
Dec 19
First Quarter

Hourly Weather History & Observations

Time (MST) Temp. Windchill Dew Point Humidity Pressure Visibility Wind Dir Wind Speed Gust Speed Precip Events Conditions
12:53 AM 33.1 °F 24.9 °F 26.1 °F 75% 30.20 in 10.0 mi South 10.4 mph - N/A   Clear
1:53 AM 32.0 °F 23.6 °F 25.0 °F 75% 30.23 in 10.0 mi South 10.4 mph - N/A   Clear
2:53 AM 30.9 °F 22.8 °F 24.1 °F 76% 30.26 in 10.0 mi SSW 9.2 mph - N/A   Clear
3:53 AM 32.0 °F 24.2 °F 23.0 °F 69% 30.29 in 10.0 mi SSW 9.2 mph - N/A   Clear
4:53 AM 32.0 °F 24.2 °F 21.9 °F 66% 30.31 in 10.0 mi SSW 9.2 mph - N/A   Clear
5:53 AM 30.9 °F 22.2 °F 21.9 °F 69% 30.34 in 10.0 mi South 10.4 mph - N/A   Clear
6:53 AM 30.9 °F 21.7 °F 21.9 °F 69% 30.36 in 10.0 mi South 11.5 mph - N/A   Clear
7:53 AM 30.9 °F 21.2 °F 21.9 °F 69% 30.39 in 10.0 mi South 12.7 mph - N/A   Clear
8:53 AM 34.0 °F 26.0 °F 24.1 °F 67% 30.40 in 10.0 mi South 10.4 mph - N/A   Clear
9:53 AM 39.0 °F 33.4 °F 25.0 °F 57% 30.42 in 10.0 mi South 8.1 mph - N/A   Clear
10:53 AM 42.1 °F 37.1 °F 25.0 °F 51% 30.43 in 10.0 mi SSW 8.1 mph - N/A   Clear
11:53 AM 43.0 °F 38.8 °F 25.0 °F 49% 30.43 in 10.0 mi SW 6.9 mph - N/A   Clear
12:53 PM 44.1 °F 41.5 °F 23.0 °F 43% 30.43 in 10.0 mi WSW 4.6 mph - N/A   Clear
1:53 PM 45.0 °F 43.5 °F 23.0 °F 42% 30.43 in 10.0 mi WSW 3.5 mph - N/A   Clear
2:53 PM 45.0 °F - 23.0 °F 42% 30.42 in 10.0 mi Calm Calm - N/A   Clear
3:53 PM 46.0 °F - 24.1 °F 42% 30.43 in 10.0 mi Calm Calm - N/A   Clear
4:53 PM 42.1 °F 40.2 °F 25.0 °F 51% 30.45 in 10.0 mi NNW 3.5 mph - N/A   Clear
5:53 PM 30.0 °F - 23.0 °F 75% 30.49 in 10.0 mi Calm Calm - N/A   Clear
6:53 PM 30.0 °F 24.1 °F 23.0 °F 75% 30.50 in 10.0 mi East 5.8 mph - N/A   Clear
7:53 PM 30.0 °F 23.2 °F 23.0 °F 75% 30.51 in 10.0 mi SE 6.9 mph - N/A   Clear
8:53 PM 30.0 °F 24.1 °F 23.0 °F 75% 30.51 in 10.0 mi ESE 5.8 mph - N/A   Clear
9:53 PM 30.9 °F 26.2 °F 23.0 °F 72% 30.49 in 10.0 mi East 4.6 mph - N/A   Clear
10:53 PM 30.0 °F 24.1 °F 21.9 °F 72% 30.49 in 10.0 mi East 5.8 mph - N/A   Clear
11:53 PM 28.0 °F 20.8 °F 21.0 °F 75% 30.48 in 10.0 mi ESE 6.9 mph - N/A   Clear